Regional Weather Roundup
Issued by NWS

Home | Current Version | Previous Version | Text Only | Print | Product List | Glossary Off
Versions: 1 2 3 4 5 6 7 8 9 10 11 12 13 14 15 16 17 18 19 20 21 22 23 24 25 26 27 28 29 30 31 32 33 34 35 36 37 38 39 40 41 42 43 44 45 46 47 48 49 50

000
ASUS43 KLOT 251704
RWRIL

ILLINOIS REGIONAL WEATHER ROUNDUP
NATIONAL WEATHER SERVICE CHICAGO/ROMEOVILLE IL
1200 PM CDT TUE JUL 25 2017

NOTE: "FAIR" INDICATES FEW OR NO CLOUDS BELOW 12,000 FEET WITH NO
SIGNIFICANT WEATHER AND/OR OBSTRUCTIONS TO VISIBILITY.

* THESE STATIONS ARE NOT UNDER NWS QUALITY CONTROL. THEY ALSO MAY NOT
  REPORT WEATHER SUCH AS PRECIPITATION OR FOG.

ILZ001-002-007-009-015-016-024-251800-
NORTHWEST ILLINOIS

CITY           SKY/WX    TMP DP  RH WIND       PRES   REMARKS
MOLINE         MOSUNNY   79  67  66 S6        30.16S HX  81
STERLING*      SUNNY     76  65  68 S6        30.19S
SAVANNA*       MOSUNNY   77  65  66 S7        30.18S
$$

ILZ003-004-008-010-011-017-018-251800-
NORTH CENTRAL ILLINOIS

CITY           SKY/WX    TMP DP  RH WIND       PRES   REMARKS
ROCKFORD       PTSUNNY   77  62  59 S12       30.21S
FREEPORT*      MOSUNNY   73  62  68 S8        30.21S
ROCHELLE*      MOSUNNY   74  63  68 SE9       30.21S
DE KALB*       MOSUNNY   74  62  66 S10G18    30.21F
PERU*          SUNNY    N/A N/A N/A SE6       30.20R
$$

ILZ005-006-012>014-019>023-251800-
NORTHEAST ILLINOIS

CITY           SKY/WX    TMP DP  RH WIND       PRES   REMARKS
CHICAGO-OHARE  MOSUNNY   78  56  46 SE9       30.20S
CHICAGO-MIDWAY MOSUNNY   78  57  48 S7        30.21R
AURORA         SUNNY     77  59  53 SE12      30.21F
LANSING*       SUNNY     76  55  49 SE9G16    30.21S
JOLIET*        SUNNY     77  59  54 S8        30.22R
WAUKEGAN       SUNNY     74  59  59 SE14      30.20S
DUPAGE AIRPORT SUNNY     76  58  53 S12       30.20S
WHEELING       SUNNY     76  56  49 S12       30.22R
MORRIS*        SUNNY     75  60  59 S6        30.20S
ROMEOVILLE*    SUNNY     76  57  52 S10       30.22R
NORTHERLY ISL    N/A     75  60  59 E10         N/A
$$

LMZ740>746-251800-
SOUTHERN LAKE MICHIGAN

STATION/POSITION SKY/WX   TEMP    WIND        PRES    VSBY  WAVE
                          AIR SEA DIR/SP/G                  HT/PER
                          (F)     (DEG/KT/KT) (MB)    (MI)  (FT/S)
SOUTHERN BUOY              70 71  160/ 12/ 14 1023.1          1/ 3
WILMETTE HARBOR            71 72  130/ 10/ 14   N/A           2/ 3
HARRISON CRIB              73     140/ 11/ 12   N/A
BURNHAM HARBOR             75                   N/A
CALUMET HARBOR             74     160/  6/ 10 1022.4R
BURNS HARBOR               74     140/ 12/ 16 1023.4S
MICHIGAN CITY              72     140/ 12/ 14   N/A
MICHIGAN CITY 6N           73 74  150/ 10/ 12   N/A           2/ 5
ST. JOSEPH                 73 73  170/  8/ 12 1023.0F         1/ 4
$$

ILZ025>027-034>036-040-047-049-050-058-095>099-251800-
WEST-CENTRAL ILLINOIS

CITY           SKY/WX    TMP DP  RH WIND       PRES   REMARKS
QUINCY         MOSUNNY   84  66  54 SE7       30.13R HX  86
GALESBURG*     SUNNY     78  68  70 SE5       30.17S HX  80
MACOMB*        SUNNY     79  69  70 E6        30.18R HX  81
JACKSONVILLE*  MOSUNNY   82  68  63 E8        30.14R HX  85
PITTSFIELD*    MOSUNNY   83  71  68 SE8       30.14S HX  88
$$

ILZ028>032-037-038-041>044-048-051>054-059>061-251800-
CENTRAL ILLINOIS

CITY           SKY/WX    TMP DP  RH WIND       PRES   REMARKS
PONTIAC        SUNNY     76  66  70 E7        30.20R
BLOOMINGTON    MOSUNNY   78  65  63 E10       30.19S HX  80
DECATUR        SUNNY     79  67  66 SE10      30.16S HX  81
PEORIA         MOSUNNY   78  66  66 VRB6      30.17R HX  80
LACON*         MOSUNNY   77  65  66 SE6       30.18R
LINCOLN*       SUNNY     80  69  67 E7        30.16S HX  83
SPRINGFIELD    MOSUNNY   84  70  62 NE6       30.15R HX  88
TAYLORVILLE    SUNNY     81  68  64 E7        30.14S HX  84
$$

ILZ033-039-045-046-055>057-062-063-251800-
EAST-CENTRAL ILLINOIS

CITY           SKY/WX    TMP DP  RH WIND       PRES   REMARKS
CHAMPAIGN      SUNNY     78  65  63 E9        30.18R HX  80
RANTOUL*       SUNNY     78  64  61 E5        30.18S HX  80
MATTOON        SUNNY     79  68  69 E8        30.15S HX  81
PARIS*         SUNNY     77  67  70 E5        30.18S
$$

ILZ079-100>102-251800-
SOUTHWEST ILLINOIS

CITY           SKY/WX    TMP DP  RH WIND       PRES   REMARKS
ALTON          MOSUNNY   82  73  74 E9        30.12S HX  88
BELLEVILLE     SUNNY     84  73  68 SE6       30.11S HX  91
CAHOKIA*       MOSUNNY   86  70  58 VRB3      30.10S HX  90
SPARTA*        PTSUNNY   84  72  68 CALM      30.11R HX  89
$$

ILZ064>066-069>071-074>076-080>082-084>086-088>090-092>094-251800-
SOUTH-CENTRAL ILLINOIS

CITY           SKY/WX    TMP DP  RH WIND       PRES   REMARKS
CARBONDALE     CLOUDY    83  75  77 SE5       30.10S HX  90
CAIRO*         SUNNY     89  78  71 SE5       30.07S HX 103
EFFINGHAM*     SUNNY     82  70  66 E8        30.16S HX  85
MARION         PTSUNNY   84  75  74 NE7       30.11S HX  92
MT. VERNON     PTSUNNY   83  73  72 E6        30.12S HX  89
CENTRALIA*     SUNNY     84  73  68 NE7       30.10F HX  90
SALEM*         PTSUNNY   83  70  64 E5        30.12F HX  87
METROPOLIS*    MOSUNNY   88  78  72 N3        30.09S HX 102
$$

ILZ067-068-072-073-078-083-087-091-251800-
SOUTHEAST ILLINOIS

CITY           SKY/WX    TMP DP  RH WIND       PRES   REMARKS
LAWRENCEVILLE  SUNNY     81  70  69 NE9       30.14F HX  84
FLORA*         SUNNY     85  70  61 E9        30.12F HX  89
FAIRFIELD*     SUNNY     83  71  65 CALM      30.11F HX  87
HARRISBURG*    PTSUNNY   84  74  73 SE5       30.10S HX  91
ROBINSON*      SUNNY     79  68  68 E5        30.16S HX  81
CARMI*         MOSUNNY   83  73  72 E6        30.11S HX  88
$$

ABBREVIATIONS USED IN REMARKS
   TC - TEMPERATURE IN CELSIUS
  WCI - WIND CHILL INDEX
   HX - HEAT INDEX
  VSB - VISIBILITY
$$




USA.gov is the U.S. government's official web portal to all federal, state and local government web resources and services.